Hourly Data Report for October 30, 2015

All times are specified in Local Standard Time (LST). Add 1 hour to adjust for Daylight Saving Time where and when it is observed.

CHARLOTTETOWN A
PRINCE EDWARD ISLAND

46°17'21.000" N
63°07'09.000" W
48.50 m
8300301
71706
YYG

Download Data

Hourly Data (October 2015)
Hourly Data Report for October 30, 2015
Temp Definition
°C
Dew Point Temp Definition
°C
Rel Hum Definition
%
Wind Dir Definition
10's deg

Wind Spd Definition
km/h
Visibility Definition
km
Stn Press Definition
kPa
Hmdx Definition


Wind Chill Definition


Weather Definition


TIME
00:00 Legend Double Dagger 15.6 13.1 85 24 20 24.1 98.66     LegendNANA
01:00 Legend Double Dagger 14.0 11.4 84 25 28 24.1 98.64     LegendNANA
02:00 Legend Double Dagger 11.2 3.5 59 27 26 24.1 98.71     Rain Showers
03:00 Legend Double Dagger 9.8 2.4 60 26 19 24.1 98.78     Rain Showers
04:00 Legend Double Dagger 9.3 1.3 57 23 22 24.1 98.78     LegendNANA
05:00 Legend Double Dagger 8.8 2.6 65 23 28 24.1 98.86     Mainly Clear
06:00 Legend Double Dagger 8.6 2.0 63 24 27 24.1 98.89     LegendNANA
07:00 Legend Double Dagger 7.7 -0.3 57 24 22 24.1 98.89     LegendNANA
08:00 Legend Double Dagger 8.5 1.4 61 23 30 24.1 98.89     Mainly Clear
09:00 Legend Double Dagger 9.9 1.3 55 24 35 24.1 98.86     LegendNANA
10:00 Legend Double Dagger 10.9 2.0 54 24 41 24.1 98.82     LegendNANA
11:00 Legend Double Dagger 10.9 2.0 54 25 32 24.1 98.95     Mainly Clear
12:00 Legend Double Dagger 10.6 2.2 56 26 31 24.1 99.02     LegendNANA
13:00 Legend Double Dagger 10.3 1.2 53 25 34 24.1 99.03     LegendNANA
14:00 Legend Double Dagger 10.4 0.2 49 28 39 24.1 99.11     Mainly Clear
15:00 Legend Double Dagger 9.6 -0.8 48 28 34 24.1 99.26     LegendNANA
16:00 Legend Double Dagger 8.3 -2.6 46 28 36 24.1 99.38     LegendNANA
17:00 Legend Double Dagger 6.9 -4.2 45 28 25 24.1 99.46     Mainly Clear
18:00 Legend Double Dagger 6.2 -4.0 48 29 30 24.1 99.60     LegendNANA
19:00 Legend Double Dagger 5.7 -5.0 46 28 30 24.1 99.71     LegendNANA
20:00 Legend Double Dagger 5.5 -4.9 47 28 28 24.1 99.81     Mostly Cloudy
21:00 Legend Double Dagger 4.6 -5.2 49 28 23 24.1 99.86     LegendNANA
22:00 Legend Double Dagger 4.1 -5.4 50 28 26 24.1 99.99     LegendNANA
23:00 Legend Double Dagger 3.8 -4.9 53 27 21 24.1 100.09     Mostly Cloudy

Notes on Data Quality.

Legend

  • E = Estimated
  • M = Missing
  • NA = Not Available
  • ‡ = Partner data that is not subject to review by the National Climate Archives
Date modified: